Location: Gälforsberget
(66.6500°N, 22.4167°E)
Time: 11:40:32
(UTC+00:00)

Cosmos 921 Rocket - Pass Details

Date: 11 April 2026
Orbit: 563 x 620 km, 75.8° (Epoch: 10 May)

Event Time Altitude Azimuth Distance (km) Brightness Sun altitude
Rises 20:21:31 0° 320° (NW) 2,913 8.6 -11.2°
Reaches altitude 10° 20:23:47 10° 323° (NW) 2,005 7.2 -11.3°
Maximum altitude 20:28:16 71° 47° (NE) 665 3.2 -11.5°
Enters shadow 20:31:49 16° 131° (SE) 1,642 4.6 -11.7°
